Regional Weather Roundup
Issued by NWS Goodland, KS

Home | Current Version | Previous Version | Graphics & Text | Print | Product List | Glossary On
Versions: 1 2 3 4 5 6 7 8 9 10 11 12 13 14 15 16 17 18 19 20 21 22 23 24 25 26 27 28 29 30 31 32 33 34 35 36 37 38 39 40 41 42 43 44 45 46 47 48 49 50
000
ASUS43 KGLD 010708
RWRGLD

GOODLAND FORECAST AREA HOURLY WEATHER ROUNDUP
NATIONAL WEATHER SERVICE GOODLAND KS
100 AM MDT FRI AUG 01 2014

...OFFICIAL OBSERVATIONS...

CITY           SKY/WX    TMP DP  RH WIND       PRES   REMARKS
GOODLAND KS    PTCLDY    63  52  67 W10       30.17S
HILL CITY KS   CLEAR     66  53  63 W3        30.07F
IMPERIAL NEB   CLEAR     62  53  72 E5        30.15S
MCCOOK NEB     CLEAR     64  55  72 NW3       30.11S
AKRON CO       PTCLDY    62  53  72 SW12      30.22F
BURLINGTON CO  CLEAR     60  51  72 W9        30.21S
LIMON CO       CLEAR     53  52  96 N5        30.29F
$$

...UNOFFICIAL OBSERVATIONS...

CITY           SKY/WX    TMP DP  RH WIND       PRES   REMARKS
COLBY KS       CLEAR     64  55  72 NW7       30.15S
GOVE KS          N/A     66  32  28 MISG        N/A
NORTON KS      CLEAR     66  54  63 N6        30.07F
OBERLIN KS     FAIR      63  55  77 NE3       30.10F
ST FRANCIS KS  CLEAR     61  54  77 SW8       30.15S
TRIBUNE KS     CLEAR     61 N/A N/A SW8       30.21
TRENTON NEB      N/A     68  32  26 CALM        N/A
KIT CARSON CO    N/A     59  53  80 CALM        N/A
WRAY CO          N/A     64  54  68 N8        30.19R
YUMA CO          N/A     60  53  79 W6          N/A
$$


USA.gov is the U.S. government's official web portal to all federal, state and local government web resources and services.